Weather History for El Paso, TX

Change the Weather History Date:

Friday, August 23, 2013

  Actual Average Record
Temperature  
Mean Temperature 82 °F 81 °F  
Max Temperature 92 °F 92 °F 103 °F (1994)
Min Temperature 72 °F 69 °F 58 °F (1973)
Degree Days  
Heating Degree Days 0 0  
Month to date heating degree days 0 0  
Since 1 June heating degree days 0 0  
Since 1 July heating degree days 0 0  
Cooling Degree Days 17 16  
Month to date cooling degree days 446 378  
Year to date cooling degree days 2162 1809  
Since 1 June cooling degree days 1654 1432  
Growing Degree Days 32 (Base 50)    
Moisture  
Dew Point 53 °F    
Average Humidity 37    
Maximum Humidity 50    
Minimum Humidity 23    
Precipitation  
Precipitation T in 0.06 in 1.66 in (1954)
Month to date precipitation 0.36 1.59  
Year to date precipitation 4.54 5.90  
Snow  
Snow 0.00 in - - ()
Month to date snowfall 0.0  
Since 1 June snowfall T  
Since 1 July snowfall T  
Snow Depth 0.00 in    
Sea Level Pressure  
Sea Level Pressure 29.85 in    
Wind  
Wind Speed 9 mph (SE)    
Max Wind Speed 24 mph    
Max Gust Speed 31 mph    
Visibility 10 miles    
Events Rain    
T = Trace of Precipitation, MM = Missing Value Source: NWS Daily Summary

Daily Weather History Graph

Daily Weather History Graph

Search for Another Location

Airport:

Trip Planner

Search our weather history database for the weather conditions in past years. The results will help you decide how hot, cold, wet, or windy it might be!

Date:

Astronomy

Aug. 23, 2013 Rise Set
Actual Time 6:35 AM MDT 7:39 PM MDT
Civil Twilight 6:10 AM MDT 8:05 PM MDT
Nautical Twilight 5:40 AM MDT 8:34 PM MDT
Astronomical Twilight 5:09 AM MDT 9:05 PM MDT
Moon 9:16 PM MDT (8/23) 9:19 AM MDT (8/23)
Length of Visible Light 13h 54m
Length of Day
13h 04m
Waning Gibbous, 91% of the Moon is Illuminated
Aug 23
Waning Gibbous
Aug 28
Last Quarter
Sep 5
New
Sep 12
First Quarter
Sep 19
Full

Hourly Weather History & Observations

Time (MDT) Temp. Heat Index Dew Point Humidity Pressure Visibility Wind Dir Wind Speed Gust Speed Precip Events Conditions
12:51 AM 79.0 °F - 53.1 °F 40% 29.85 in 10.0 mi SSE 6.9 mph - N/A   Partly Cloudy
1:51 AM 78.1 °F - 53.1 °F 42% 29.84 in 10.0 mi SSE 6.9 mph - N/A   Scattered Clouds
2:51 AM 73.9 °F - 54.0 °F 50% 29.83 in 10.0 mi ESE 3.5 mph - N/A   Scattered Clouds
3:51 AM 73.9 °F - 54.0 °F 50% 29.83 in 10.0 mi SE 5.8 mph - N/A   Partly Cloudy
4:51 AM 73.0 °F - 54.0 °F 51% 29.84 in 10.0 mi SE 4.6 mph - N/A   Partly Cloudy
5:51 AM 73.0 °F - 54.0 °F 51% 29.86 in 10.0 mi Calm Calm - N/A   Partly Cloudy
6:51 AM 73.0 °F - 54.0 °F 51% 29.88 in 10.0 mi SE 4.6 mph - N/A   Scattered Clouds
7:51 AM 75.0 °F - 55.0 °F 50% 29.89 in 10.0 mi SSE 5.8 mph - N/A   Mostly Cloudy
8:51 AM 75.9 °F - 55.0 °F 48% 29.89 in 10.0 mi ESE 5.8 mph - N/A   Mostly Cloudy
9:51 AM 80.1 °F 80.0 °F 54.0 °F 40% 29.90 in 10.0 mi SSE 10.4 mph - N/A   Mostly Cloudy
10:51 AM 82.9 °F 81.9 °F 54.0 °F 37% 29.90 in 10.0 mi Variable 5.8 mph - N/A   Scattered Clouds
11:51 AM 84.0 °F 82.6 °F 54.0 °F 35% 29.88 in 10.0 mi SSE 8.1 mph - N/A   Partly Cloudy
12:51 PM 87.1 °F - 52.0 °F 30% 29.85 in 10.0 mi SE 10.4 mph 19.6 mph N/A   Scattered Clouds
1:51 PM 89.1 °F - 48.9 °F 25% 29.82 in 10.0 mi SSE 15.0 mph 20.7 mph N/A   Scattered Clouds
2:51 PM 90.0 °F - 48.0 °F 24% 29.80 in 10.0 mi ESE 11.5 mph 20.7 mph N/A   Mostly Cloudy
3:51 PM 89.1 °F - 46.9 °F 23% 29.78 in 10.0 mi SE 11.5 mph 19.6 mph N/A   Mostly Cloudy
4:51 PM 91.9 °F - 48.0 °F 22% 29.75 in 10.0 mi SSE 13.8 mph 24.2 mph N/A   Scattered Clouds
5:32 PM 87.8 °F - 51.8 °F 29% 30.00 in 10.0 mi East 18.4 mph 28.8 mph N/A   Mostly Cloudy
5:51 PM 84.9 °F 83.2 °F 53.1 °F 33% 29.79 in 8.0 mi ESE 24.2 mph 31.1 mph 0.00 in Rain Light Rain
6:51 PM 82.9 °F 81.8 °F 53.1 °F 36% 29.78 in 10.0 mi ESE 17.3 mph 25.3 mph 0.00 in   Scattered Clouds
7:51 PM 81.0 °F 80.4 °F 53.1 °F 38% 29.79 in 10.0 mi SE 13.8 mph - N/A   Scattered Clouds
8:51 PM 80.1 °F 80.0 °F 54.0 °F 40% 29.82 in 10.0 mi ESE 13.8 mph 20.7 mph N/A   Scattered Clouds
9:51 PM 77.0 °F - 54.0 °F 45% 29.86 in 10.0 mi SE 6.9 mph - N/A   Scattered Clouds
10:51 PM 75.0 °F - 54.0 °F 48% 29.87 in 10.0 mi SE 9.2 mph - N/A   Scattered Clouds
11:51 PM 73.9 °F - 53.1 °F 48% 29.87 in 10.0 mi ESE 6.9 mph - N/A   Scattered Clouds